CW1466 Weather Reports


time (UTC)temp
F
wind
direction
speed
knots
gust
knots
rain 1hr
in
rain 24hr
in
rain mn
in
humidity
%
barometer
mb
20260507143050 74 91 0.0 0.9 0.00 0.00 0.00 28 1014.2
20260507142543 73 0 0.0 2.6 0.00 0.00 0.00 30 1014.1
20260507142043 72 72 0.0 2.6 0.00 0.00 0.00 30 1014.1
20260507141557 72 0 0.0 4.3 0.00 0.00 0.00 30 1014.1
20260507141042 71 0 0.0 4.3 0.00 0.00 0.00 31 1014.1
20260507140542 71 0 0.0 4.3 0.00 0.00 0.00 31 1014.2
20260507140056 71 52 0.0 2.6 0.00 0.00 0.00 32 1014.1
20260507135542 70 64 0.0 2.6 0.00 0.00 0.00 32 1014.0
20260507135042 70 66 0.0 2.6 0.00 0.00 0.00 31 1013.9
20260507134556 70 0 0.0 0.9 0.00 0.00 0.00 32 1013.9
20260507134042 69 0 0.0 0.9 0.00 0.00 0.00 32 1013.8
20260507133542 70 0 0.0 0.9 0.00 0.00 0.00 31 1013.8
20260507133053 70 0 0.0 1.7 0.00 0.00 0.00 31 1013.7
20260507132544 69 83 0.0 1.7 0.00 0.00 0.00 31 1013.7
20260507132041 69 0 0.0 0.9 0.00 0.00 0.00 31 1013.7
20260507131600 69 0 0.0 0.9 0.00 0.00 0.00 31 1013.7
20260507131042 68 0 0.0 0.9 0.00 0.00 0.00 31 1013.7
20260507130547 68 0 0.0 0.9 0.00 0.00 0.00 32 1013.6
20260507130100 67 0 0.0 0.0 0.00 0.00 0.00 32 1013.6
20260507125542 67 0 0.0 0.0 0.00 0.00 0.00 32 1013.5
20260507125043 66 0 0.0 0.0 0.00 0.00 0.00 32 1013.5
20260507124554 66 0 0.0 0.9 0.00 0.00 0.00 32 1013.5
20260507124045 66 0 0.0 0.9 0.00 0.00 0.00 32 1013.3
20260507123542 66 0 0.0 0.9 0.00 0.00 0.00 32 1013.5
20260507123107 66 0 0.0 0.9 0.00 0.00 0.00 32 1013.5
20260507122545 66 0 0.0 0.9 0.00 0.00 0.00 32 1013.4
20260507122045 66 0 0.0 1.7 0.00 0.00 0.00 32 1013.4
20260507121605 66 0 0.0 1.7 0.00 0.00 0.00 32 1013.4
20260507121044 66 0 0.0 1.7 0.00 0.00 0.00 33 1013.3
20260507120541 65 0 0.0 1.7 0.00 0.00 0.00 33 1013.3
20260507120107 65 0 0.0 1.7 0.00 0.00 0.00 33 1013.4
20260507115542 65 0 0.0 2.6 0.00 0.00 0.00 33 1013.4
20260507115042 65 0 0.0 2.6 0.00 0.00 0.00 33 1013.5
20260507114549 65 0 0.0 1.7 0.00 0.00 0.00 33 1013.5
20260507114043 65 6 0.0 1.7 0.00 0.00 0.00 33 1013.5
20260507113542 65 0 0.0 0.0 0.00 0.00 0.00 33 1013.6
20260507113059 65 0 0.0 0.0 0.00 0.00 0.00 34 1013.6
20260507112541 65 0 0.0 0.9 0.00 0.00 0.00 33 1013.7
20260507112042 65 0 0.0 0.9 0.00 0.00 0.00 33 1013.7
20260507111558 65 313 0.0 0.9 0.00 0.00 0.00 33 1013.6
20260507111042 65 0 0.0 0.0 0.00 0.00 0.00 34 1013.6
20260507110538 65 0 0.0 0.0 0.00 0.00 0.00 33 1013.7
20260507110058 66 0 0.0 0.0 0.00 0.00 0.00 33 1013.8
20260507105537 66 0 0.0 0.0 0.00 0.00 0.00 32 1013.8
20260507105038 66 0 0.0 0.0 0.00 0.00 0.00 32 1013.7
20260507104547 67 0 0.0 0.9 0.00 0.00 0.00 31 1013.8
20260507104042 67 0 0.0 0.9 0.00 0.00 0.00 31 1013.9
20260507103542 67 0 0.0 0.9 0.00 0.00 0.00 30 1014.0
20260507103054 68 0 0.0 1.7 0.00 0.00 0.00 30 1013.9
20260507102541 68 0 0.0 3.5 0.00 0.00 0.00 29 1014.1
20260507102042 68 0 0.0 3.5 0.00 0.00 0.00 29 1014.0
20260507101550 68 0 0.0 2.6 0.00 0.00 0.00 30 1014.1
20260507101042 68 0 0.0 1.7 0.00 0.00 0.00 30 1014.0
20260507100540 68 0 0.0 0.9 0.00 0.00 0.00 30 1014.1
20260507100049 67 0 0.0 1.7 0.00 0.00 0.00 31 1014.0
20260507095541 67 0 0.0 1.7 0.00 0.00 0.00 32 1014.0
20260507095041 66 86 0.0 0.9 0.00 0.00 0.00 34 1014.0
20260507094548 65 0 0.0 0.0 0.00 0.00 0.00 35 1014.1
20260507094041 65 0 0.0 0.0 0.00 0.00 0.00 34 1014.0
20260507093538 65 0 0.0 0.0 0.00 0.00 0.00 34 1014.0
20260507093056 66 0 0.0 0.0 0.00 0.00 0.00 34 1014.0
20260507092542 66 0 0.0 0.0 0.00 0.00 0.00 33 1014.1
20260507092042 66 0 0.0 0.0 0.00 0.00 0.00 33 1014.0
20260507091607 66 0 0.0 0.0 0.00 0.00 0.00 33 1014.0
20260507091042 67 0 0.0 0.0 0.00 0.00 0.00 32 1014.0
20260507090543 67 0 0.0 0.0 0.00 0.00 0.00 32 1014.1
20260507090055 67 0 0.0 0.9 0.00 0.00 0.00 32 1014.1
20260507085543 67 0 0.0 0.9 0.00 0.00 0.00 31 1014.1
20260507085042 68 0 0.0 0.9 0.00 0.00 0.00 31 1014.1
20260507084554 68 0 0.0 0.9 0.00 0.00 0.00 30 1014.2
20260507084042 68 321 0.0 0.0 0.00 0.00 0.00 30 1014.0
20260507083541 68 0 0.0 0.0 0.00 0.00 0.00 29 1014.0
20260507083050 68 0 0.0 0.0 0.00 0.00 0.00 30 1014.1
20260507082540 69 0 0.0 0.0 0.00 0.00 0.00 29 1014.2
20260507082044 69 0 0.0 0.9 0.00 0.00 0.00 29 1014.2
20260507081555 69 0 0.0 0.9 0.00 0.00 0.00 29 1014.3
20260507081041 69 0 0.0 0.9 0.00 0.00 0.00 29 1014.2
20260507080542 69 0 0.0 0.0 0.00 0.00 0.00 29 1014.3
20260507080049 69 0 0.0 0.0 0.00 0.00 0.00 29 1014.4
20260507075542 69 0 0.0 0.9 0.00 0.00 0.00 29 1014.2
20260507075043 69 0 0.0 1.7 0.00 0.00 0.00 29 1014.3
20260507074551 70 0 0.0 2.6 0.00 0.00 0.00 29 1014.2
20260507074041 70 214 0.0 2.6 0.00 0.00 0.00 29 1014.2
20260507073541 70 206 0.0 0.9 0.00 0.00 0.00 29 1014.3
20260507073050 70 211 0.0 1.7 0.00 0.00 0.00 28 1014.3
20260507072538 71 215 0.0 2.6 0.00 0.00 0.00 28 1014.2
20260507072040 71 208 0.9 2.6 0.00 0.00 0.00 27 1014.2
20260507071555 71 214 0.0 0.9 0.00 0.00 0.00 26 1014.3
20260507071043 71 0 0.0 0.9 0.00 0.00 0.00 27 1014.2
20260507070541 71 203 0.0 0.9 0.00 0.00 0.00 27 1014.2
20260507070100 71 0 0.0 0.9 0.00 0.00 0.00 27 1014.2
20260507065541 72 0 0.0 2.6 0.00 0.00 0.00 26 1014.4
20260507065041 72 0 0.0 2.6 0.00 0.00 0.00 26 1014.3
20260507064552 72 241 0.0 2.6 0.00 0.00 0.00 26 1014.2
20260507064043 72 257 0.0 1.7 0.00 0.00 0.00 26 1014.4
20260507063541 71 0 0.0 0.9 0.00 0.00 0.00 27 1014.3
20260507063055 71 273 0.0 1.7 0.00 0.00 0.00 27 1014.4
20260507062541 71 0 0.0 1.7 0.00 0.00 0.00 27 1014.5
20260507062041 71 267 0.0 1.7 0.00 0.00 0.00 28 1014.4
20260507061552 70 0 0.0 0.0 0.00 0.00 0.00 28 1014.5
20260507061041 70 0 0.0 0.0 0.00 0.00 0.00 29 1014.6
20260507060547 71 0 0.0 0.0 0.00 0.00 0.00 29 1014.5
20260507055544 71 0 0.0 0.0 0.00 0.00 0.00 28 1014.5
20260507055040 71 0 0.0 0.0 0.00 0.00 0.00 28 1014.5
20260507054555 72 0 0.0 0.9 0.00 0.00 0.00 28 1014.6
20260507054042 72 0 0.0 0.9 0.00 0.00 0.00 27 1014.5
20260507053542 73 0 0.0 2.6 0.00 0.00 0.00 27 1014.4
20260507053054 73 0 0.0 2.6 0.00 0.00 0.00 27 1014.4
20260507052543 73 251 0.0 2.6 0.00 0.00 0.00 28 1014.4
20260507052042 73 0 0.0 2.6 0.00 0.00 0.00 28 1014.3
20260507051550 73 0 0.0 1.7 0.00 0.00 0.00 27 1014.3
20260507051041 74 269 0.0 0.0 0.00 0.00 0.00 27 1014.4
20260507050543 74 0 0.0 0.9 0.00 0.00 0.00 26 1014.2
20260507050053 74 0 0.0 1.7 0.00 0.00 0.00 25 1014.3
20260507045543 75 213 0.0 1.7 0.00 0.00 0.00 25 1014.2
20260507045041 75 231 0.0 3.5 0.00 0.00 0.00 24 1014.1
20260507044551 75 0 0.9 3.5 0.00 0.00 0.00 24 1014.2
20260507044042 76 217 0.0 2.6 0.00 0.00 0.00 24 1014.0
20260507043541 76 0 0.9 2.6 0.00 0.00 0.00 24 1014.0
20260507043053 76 252 0.9 2.6 0.00 0.00 0.00 24 1013.9
20260507042541 76 256 0.0 2.6 0.00 0.00 0.00 24 1013.9
20260507042043 76 228 0.0 1.7 0.00 0.00 0.00 24 1013.9
20260507041551 76 205 0.0 3.5 0.00 0.00 0.00 25 1013.8
20260507041042 76 219 0.9 3.5 0.00 0.00 0.00 24 1013.7
20260507040542 76 236 0.9 3.5 0.00 0.00 0.00 24 1013.7
20260507040051 77 223 0.0 3.5 0.00 0.00 0.00 24 1013.6
20260507035541 77 271 0.0 3.5 0.00 0.00 0.00 24 1013.5
20260507035041 77 268 0.0 3.5 0.00 0.00 0.00 24 1013.4
20260507034557 77 266 0.0 3.5 0.00 0.00 0.00 23 1013.4
20260507034041 77 272 0.0 1.7 0.00 0.00 0.00 23 1013.4
20260507033542 78 239 0.0 1.7 0.00 0.00 0.00 23 1013.2
20260507033051 78 281 0.0 2.6 0.00 0.00 0.00 23 1013.2
20260507032542 78 248 0.0 2.6 0.00 0.00 0.00 23 1013.1
20260507032042 78 282 0.0 2.6 0.00 0.00 0.00 23 1013.0
20260507031546 78 288 0.9 3.5 0.00 0.00 0.00 23 1012.9
20260507031042 79 0 0.9 5.2 0.00 0.00 0.00 23 1012.9
20260507030542 79 293 0.9 5.2 0.00 0.00 0.00 23 1012.9
20260507030051 79 257 1.7 5.2 0.00 0.00 0.00 23 1012.8
20260507025545 79 272 1.7 4.3 0.00 0.00 0.00 23 1012.8
20260507025042 79 285 2.6 4.3 0.00 0.00 0.00 22 1012.6
20260507024558 80 243 1.7 4.3 0.00 0.00 0.00 22 1012.8
20260507024040 80 290 1.7 3.5 0.00 0.00 0.00 22 1012.7
20260507023541 80 281 0.9 3.5 0.00 0.00 0.00 21 1012.5
20260507023054 80 238 0.0 4.3 0.00 0.00 0.00 21 1012.5
20260507022542 80 184 0.0 4.3 0.00 0.00 0.00 21 1012.4
20260507022042 81 229 0.9 4.3 0.00 0.00 0.00 21 1012.4
20260507021554 81 0 0.0 2.6 0.00 0.00 0.00 21 1012.4
20260507021040 81 275 0.9 3.5 0.00 0.00 0.00 20 1012.4
20260507020545 81 236 0.9 3.5 0.00 0.00 0.00 20 1012.4
20260507020054 82 239 0.9 4.3 0.00 0.00 0.00 20 1012.4
20260507015540 82 219 0.9 5.2 0.00 0.00 0.00 20 1012.4
20260507015040 83 201 1.7 6.1 0.00 0.00 0.00 20 1012.4
20260507014551 83 236 3.5 6.1 0.00 0.00 0.00 19 1012.4
20260507014040 83 268 0.9 5.2 0.00 0.00 0.00 19 1012.4
20260507013543 84 243 1.7 7.0 0.00 0.00 0.00 19 1012.3
20260507013048 84 229 2.6 7.0 0.00 0.00 0.00 19 1012.4
20260507012545 84 221 1.7 7.0 0.00 0.00 0.00 19 1012.3
20260507012041 84 202 1.7 7.0 0.00 0.00 0.00 19 1012.3
20260507011553 84 295 1.7 7.0 0.00 0.00 0.00 19 1012.2
20260507011040 84 197 3.5 7.0 0.00 0.00 0.00 19 1012.2
20260507010541 84 295 2.6 7.0 0.00 0.00 0.00 19 1012.2
20260507010106 84 230 2.6 8.7 0.00 0.00 0.00 19 1012.3
20260507005542 84 283 3.5 8.7 0.00 0.00 0.00 19 1012.3
20260507005041 84 210 2.6 6.1 0.00 0.00 0.00 19 1012.3
20260507004547 84 253 2.6 6.1 0.00 0.00 0.00 19 1012.3
20260507004041 84 202 3.5 7.8 0.00 0.00 0.00 19 1012.2
20260507003542 84 220 1.7 7.8 0.00 0.00 0.00 19 1012.2
20260507003053 84 281 3.5 7.8 0.00 0.00 0.00 19 1012.4
20260507002540 85 219 1.7 7.8 0.00 0.00 0.00 19 1012.4
20260507002041 84 191 2.6 7.8 0.00 0.00 0.00 19 1012.4
20260507001556 85 262 2.6 5.2 0.00 0.00 0.00 19 1012.3
20260507001043 84 215 0.9 7.0 0.00 0.00 0.00 19 1012.4
20260507000541 84 248 3.5 7.0 0.00 0.00 0.00 20 1012.5
20260507000056 84 280 0.9 5.2 0.00 0.00 0.00 20 1012.5
20260506235542 84 177 2.6 5.2 0.00 0.00 0.00 20 1012.4
20260506235040 84 226 2.6 8.7 0.00 0.00 0.00 20 1012.3
20260506234616 84 251 2.6 8.7 0.00 0.00 0.00 20 1012.4
20260506234041 84 290 4.3 7.8 0.00 0.00 0.00 20 1012.4
20260506233541 84 287 2.6 6.1 0.00 0.00 0.00 20 1012.7
20260506233059 85 259 2.6 6.1 0.00 0.00 0.00 20 1012.7
20260506232540 84 125 1.7 7.0 0.00 0.00 0.00 20 1012.6
20260506232041 85 229 2.6 7.0 0.00 0.00 0.00 20 1012.8
20260506231553 84 152 0.9 6.1 0.00 0.00 0.00 20 1012.8
20260506231041 84 285 3.5 6.1 0.00 0.00 0.00 20 1012.9
20260506230540 84 221 1.7 7.0 0.00 0.00 0.00 21 1013.0
20260506230054 84 148 1.7 7.0 0.00 0.00 0.00 20 1013.0
20260506225540 85 255 1.7 7.0 0.00 0.00 0.00 20 1013.1
20260506225044 84 300 2.6 7.0 0.00 0.00 0.00 20 1013.1
20260506224553 84 175 1.7 5.2 0.00 0.00 0.00 21 1013.2
20260506224039 84 176 2.6 8.7 0.00 0.00 0.00 21 1013.2
20260506223540 84 270 3.5 8.7 0.00 0.00 0.00 20 1013.2
20260506223101 84 260 1.7 6.1 0.00 0.00 0.00 21 1013.3
20260506222542 84 233 0.9 10.4 0.00 0.00 0.00 20 1013.3
20260506222042 84 137 3.5 10.4 0.00 0.00 0.00 21 1013.4
20260506221600 84 232 2.6 7.0 0.00 0.00 0.00 21 1013.5
20260506221039 84 254 0.9 4.3 0.00 0.00 0.00 20 1013.6
20260506220540 84 274 0.9 4.3 0.00 0.00 0.00 20 1013.6
20260506220052 84 214 0.0 7.0 0.00 0.00 0.00 20 1013.6
20260506215540 84 254 0.9 7.0 0.00 0.00 0.00 20 1013.7
20260506215042 83 269 1.7 7.0 0.00 0.00 0.00 20 1013.7
20260506214549 83 347 1.7 6.1 0.00 0.00 0.00 20 1013.9
20260506214040 83 287 2.6 9.6 0.00 0.00 0.00 21 1014.0
20260506213541 83 130 2.6 9.6 0.00 0.00 0.00 20 1014.3
20260506213050 83 240 2.6 7.0 0.00 0.00 0.00 21 1014.2
20260506212540 83 297 3.5 6.1 0.00 0.00 0.00 20 1014.4
20260506212040 83 219 2.6 6.1 0.00 0.00 0.00 21 1014.3
20260506211554 83 274 0.9 8.7 0.00 0.00 0.00 21 1014.4
20260506211040 83 226 1.7 8.7 0.00 0.00 0.00 21 1014.6
20260506210541 83 319 4.3 8.7 0.00 0.00 0.00 20 1014.7
20260506210052 83 150 0.9 4.3 0.00 0.00 0.00 20 1014.5
20260506205540 83 337 0.9 3.5 0.00 0.00 0.00 20 1014.7
20260506205041 83 0 0.0 3.5 0.00 0.00 0.00 20 1014.7
20260506204551 83 0 0.0 5.2 0.00 0.00 0.00 20 1014.9
20260506204041 83 0 0.9 7.0 0.00 0.00 0.00 20 1014.9
20260506203540 83 316 0.9 7.0 0.00 0.00 0.00 20 1015.1
20260506203054 83 289 1.7 7.0 0.00 0.00 0.00 21 1014.9
20260506202541 83 312 0.0 3.5 0.00 0.00 0.00 21 1015.0
20260506202040 82 0 0.0 4.3 0.00 0.00 0.00 20 1015.1
20260506201552 82 0 0.0 4.3 0.00 0.00 0.00 21 1015.1
20260506201040 82 229 0.9 5.2 0.00 0.00 0.00 21 1015.1
20260506200541 82 0 0.0 5.2 0.00 0.00 0.00 21 1015.2
20260506200051 82 224 0.9 6.1 0.00 0.00 0.00 21 1015.3
20260506195541 82 0 0.9 8.7 0.00 0.00 0.00 21 1015.2
20260506195040 81 0 1.7 8.7 0.00 0.00 0.00 21 1015.4
20260506194550 81 265 2.6 7.8 0.00 0.00 0.00 21 1015.3
20260506194040 81 221 1.7 7.8 0.00 0.00 0.00 22 1015.5
20260506193540 82 226 0.0 7.8 0.00 0.00 0.00 21 1015.6
20260506193048 81 80 0.9 7.8 0.00 0.00 0.00 23 1015.7
20260506192540 80 214 4.3 7.0 0.00 0.00 0.00 22 1015.8
20260506192042 81 276 2.6 7.8 0.00 0.00 0.00 23 1015.7
20260506191549 80 108 2.6 7.8 0.00 0.00 0.00 23 1015.8
20260506191040 79 227 3.5 7.8 0.00 0.00 0.00 24 1015.9
20260506190540 79 296 1.7 7.8 0.00 0.00 0.00 24 1015.9
20260506190052 79 143 1.7 7.8 0.00 0.00 0.00 24 1015.9
20260506185540 80 278 3.5 7.8 0.00 0.00 0.00 23 1016.0
20260506185041 80 190 0.9 6.1 0.00 0.00 0.00 24 1015.9
20260506184550 80 125 1.7 7.0 0.00 0.00 0.00 24 1016.1
20260506184041 80 233 2.6 7.0 0.00 0.00 0.00 25 1016.0
20260506183540 79 293 2.6 7.0 0.00 0.00 0.00 24 1016.2
20260506183050 80 212 0.9 7.0 0.00 0.00 0.00 25 1016.2
20260506182539 79 268 1.7 7.0 0.00 0.00 0.00 25 1016.3
20260506182041 79 203 0.9 5.2 0.00 0.00 0.00 25 1016.4
20260506181549 79 117 1.7 7.0 0.00 0.00 0.00 26 1016.4
20260506181041 78 241 1.7 7.0 0.00 0.00 0.00 27 1016.5
20260506180545 78 206 0.9 4.3 0.00 0.00 0.00 27 1016.5
20260506180052 78 254 0.9 5.2 0.00 0.00 0.00 27 1016.4
20260506175540 77 171 0.9 5.2 0.00 0.00 0.00 28 1016.5
20260506175044 77 202 0.0 4.3 0.00 0.00 0.00 28 1016.5
20260506174556 77 257 0.9 4.3 0.00 0.00 0.00 28 1016.5
20260506174040 77 304 2.6 4.3 0.00 0.00 0.00 28 1016.5
20260506173540 77 207 0.9 6.1 0.00 0.00 0.00 29 1016.5
20260506173106 76 244 2.6 6.1 0.00 0.00 0.00 29 1016.6
20260506172540 76 0 0.9 5.2 0.00 0.00 0.00 29 1016.5
20260506172041 76 243 0.9 5.2 0.00 0.00 0.00 29 1016.5
20260506171551 75 245 0.9 4.3 0.00 0.00 0.00 30 1016.4
20260506171040 75 264 0.9 6.1 0.00 0.00 0.00 30 1016.5
20260506170539 74 295 0.9 6.1 0.00 0.00 0.00 31 1016.5
20260506170050 75 240 1.7 5.2 0.00 0.00 0.00 30 1016.5
20260506165540 74 205 0.9 5.2 0.00 0.00 0.00 32 1016.5
20260506165040 74 237 1.7 6.1 0.00 0.00 0.00 31 1016.6
20260506164548 73 198 0.9 6.1 0.00 0.00 0.00 33 1016.6
20260506164039 73 262 1.7 6.1 0.00 0.00 0.00 34 1016.6
20260506163546 73 236 0.9 6.1 0.00 0.00 0.00 35 1016.5
20260506163052 72 221 1.7 6.1 0.00 0.00 0.00 34 1016.6
20260506162542 72 279 2.6 6.1 0.00 0.00 0.00 35 1016.6
20260506162039 71 234 1.7 4.3 0.00 0.00 0.00 36 1016.5
20260506161553 71 245 1.7 4.3 0.00 0.00 0.00 36 1016.5
20260506161044 71 257 0.9 4.3 0.00 0.00 0.00 36 1016.4
20260506160540 69 227 0.9 5.2 0.00 0.00 0.00 37 1016.4
20260506160047 69 297 1.7 5.2 0.00 0.00 0.00 38 1016.5
20260506155540 69 248 1.7 5.2 0.00 0.00 0.00 36 1016.5
20260506155040 69 262 1.7 5.2 0.00 0.00 0.00 36 1016.5
20260506154557 69 287 0.9 5.2 0.00 0.00 0.00 37 1016.5
20260506154040 68 293 0.9 5.2 0.00 0.00 0.00 37 1016.5
20260506153542 68 198 1.7 5.2 0.00 0.00 0.00 37 1016.4
20260506153047 68 229 1.7 5.2 0.00 0.00 0.00 38 1016.5
20260506152539 67 245 0.9 5.2 0.00 0.00 0.00 39 1016.6
20260506152040 67 217 2.6 7.0 0.00 0.00 0.00 39 1016.6
20260506151549 67 217 2.6 7.0 0.00 0.00 0.00 39 1016.5
20260506151040 66 302 3.5 7.0 0.00 0.00 0.00 39 1016.6
20260506150539 66 239 2.6 6.1 0.00 0.00 0.00 40 1016.5
20260506150057 65 281 1.7 6.1 0.00 0.00 0.00 40 1016.4
20260506145542 65 240 1.7 5.2 0.00 0.00 0.00 41 1016.5
20260506145044 65 209 1.7 5.2 0.00 0.00 0.00 41 1016.5
20260506144602 64 269 1.7 4.3 0.00 0.00 0.00 41 1016.5
20260506144040 64 318 0.9 4.3 0.00 0.00 0.00 42 1016.5
20260506143542 63 266 0.9 5.2 0.00 0.00 0.00 42 1016.4